User: anonymous   Login
Location: Unspecified
(0.0000°N, 0.0000°E)
Time: 12:51:40
(UTC+00:00)
Language:

HORYU 2 - Orbit

View from above orbital plane
View from above orbital plane
View from above satellite
View from above satellite

Ground track
Ground track

The orbit data is extracted from the following two-line orbital elements,

1 38340U 12025D   17230.07560146  .00000230  00000-0  41978-4 0  9998
2 38340  98.3775 236.1809 0013050  94.7654 265.5044 14.75370320282417
Epoch (UTC): 18 August 2017 01:48:51
Eccentricity: 0.0013050
inclination: 98.3775°
perigee height: 635 km
apogee height: 653 km
right ascension of ascending node: 236.1809°
argument of perigee: 94.7654°
revolutions per day: 14.75370320
mean anomaly at epoch: 265.5044°
orbit number at epoch: 28241

The dashed part of the orbit path shows where the satellite is in the earth's shadow,  

DLR